Location: Niagara
(43.2500°N, 79.0670°W)
Time: 04:53:01
(UTC-04:00)

N. Korean satellite - Pass Details

Date: 16 October 2017
Orbit: 459 x 517 km, 97.2° (Epoch: 19 October)

Event Time Altitude Azimuth Distance (km) Brightness Sun altitude
Rises 20:10:50 0° 202° (SSW) 2,536 10.4 -18.9°
Reaches altitude 10° 20:13:25 10° 222° (SW) 1,651 9.7 -19.4°
Maximum altitude 20:15:53 18° 266° (W) 1,246 9.6 -19.8°
Drops below altitude 10° 20:18:19 10° 311° (NW) 1,640 10.0 -20.2°
Sets 20:20:53 0° 331° (NNW) 2,514 10.7 -20.7°
